Weather History for KONA - January, 2013

Change the Weather History Date:

Monday, January 14, 2013

  Actual Average Record
Temperature  
Mean Temperature 13 °F -  
Max Temperature 21 °F 25 °F 42 °F (1974)
Min Temperature 5 °F 12 °F -9 °F (1997)
Degree Days  
Heating Degree Days 52    
Moisture  
Dew Point 6 °F    
Average Humidity 74    
Maximum Humidity 92    
Minimum Humidity 58    
Precipitation  
Precipitation 0.00 in - - ()
Sea Level Pressure  
Sea Level Pressure 30.37 in    
Wind  
Wind Speed 3 mph (WNW)    
Max Wind Speed 10 mph    
Max Gust Speed 16 mph    
Visibility 10 miles    
Events Snow    
Averages and records for this station are not official NWS values.
T = Trace of Precipitation, MM = Missing Value Source: NWS Daily Summary

Daily Weather History Graph

Daily Weather History Graph

Search for Another Location

Airport or City:

Trip Planner

Search our weather history database for the weather conditions in past years. The results will help you decide how hot, cold, wet, or windy it might be!

Date:

Astronomy

Jan. 14, 2013 Rise Set
Actual Time 7:38 AM CST 4:53 PM CST
Civil Twilight 7:06 AM CST 5:25 PM CST
Nautical Twilight 6:30 AM CST 6:01 PM CST
Astronomical Twilight 5:56 AM CST 6:36 PM CST
Moon 9:04 AM CST (1/14) 8:49 PM CST (1/14)
Length of Visible Light 10h 18m
Length of Day
9h 14m
Waxing Crescent, 11% of the Moon is Illuminated
Jan 14
Waxing Crescent
Jan 18
First Quarter
Jan 26
Full
Feb 3
Last Quarter
Feb 10
New

Hourly Weather History & Observations

Time (CST) Temp. Windchill Dew Point Humidity Pressure Visibility Wind Dir Wind Speed Gust Speed Precip Events Conditions
12:15 AM 8.6 °F 2.0 °F 1.4 °F 73% 30.27 in 10.0 mi WNW 3.5 mph - N/A   Clear
12:34 AM 8.6 °F 0.1 °F 1.4 °F 73% 30.27 in 10.0 mi WNW 4.6 mph - N/A   Clear
12:54 AM 5.0 °F -2.1 °F -0.4 °F 78% 30.29 in 10.0 mi NW 3.5 mph - N/A   Clear
1:14 AM 8.6 °F 0.1 °F 1.4 °F 73% 30.29 in 10.0 mi WNW 4.6 mph - N/A   Clear
1:34 AM 8.6 °F 2.0 °F 1.4 °F 73% 30.30 in 10.0 mi West 3.5 mph - N/A   Clear
1:54 AM 8.6 °F 2.0 °F 1.4 °F 73% 30.30 in 10.0 mi WNW 3.5 mph - N/A   Clear
2:14 AM 8.6 °F 0.1 °F 1.4 °F 73% 30.30 in 10.0 mi NW 4.6 mph - N/A   Clear
2:34 AM 5.0 °F -2.1 °F -0.4 °F 78% 30.31 in 10.0 mi NNW 3.5 mph - N/A   Clear
2:54 AM 5.0 °F - 1.4 °F 85% 30.32 in 10.0 mi Calm Calm - N/A   Clear
3:14 AM 8.6 °F - 1.4 °F 73% 30.32 in 10.0 mi Calm Calm - N/A   Clear
3:34 AM 8.6 °F - 1.4 °F 73% 30.32 in 10.0 mi Calm Calm - N/A   Clear
3:54 AM 8.6 °F - 1.4 °F 73% 30.33 in 10.0 mi Calm Calm - N/A   Clear
4:14 AM 8.6 °F - 1.4 °F 73% 30.33 in 10.0 mi Calm Calm - N/A   Clear
4:34 AM 5.0 °F - -0.4 °F 78% 30.33 in 10.0 mi Calm Calm - N/A   Clear
4:54 AM 8.6 °F - 3.2 °F 79% 30.33 in 10.0 mi Calm Calm - N/A   Clear
5:14 AM 5.0 °F - 1.4 °F 85% 30.34 in 10.0 mi Calm Calm - N/A   Clear
5:34 AM 5.0 °F - 1.4 °F 85% 30.34 in 10.0 mi Calm Calm - N/A   Clear
5:54 AM 8.6 °F - 3.2 °F 79% 30.36 in 10.0 mi Calm Calm - N/A   Clear
6:14 AM 8.6 °F - 3.2 °F 79% 30.37 in 10.0 mi Calm Calm - N/A   Clear
6:34 AM 8.6 °F - 3.2 °F 79% 30.37 in 10.0 mi Calm Calm - N/A   Clear
6:54 AM 8.6 °F - 3.2 °F 79% 30.38 in 10.0 mi Calm Calm - N/A   Clear
7:14 AM 8.6 °F - 3.2 °F 79% 30.39 in 10.0 mi Calm Calm - N/A   Clear
7:34 AM 8.6 °F - 3.2 °F 79% 30.40 in 10.0 mi Calm Calm - N/A   Clear
7:54 AM 8.6 °F 0.1 °F 3.2 °F 79% 30.41 in 10.0 mi SW 4.6 mph - N/A   Clear
8:14 AM 8.6 °F - 1.4 °F 73% 30.41 in 10.0 mi Calm Calm - N/A   Clear
8:34 AM 10.4 °F 2.2 °F 3.2 °F 73% 30.42 in 10.0 mi West 4.6 mph - N/A   Clear
8:54 AM 10.4 °F 4.0 °F 3.2 °F 73% 30.42 in 10.0 mi WSW 3.5 mph - N/A   Clear
9:14 AM 12.2 °F 6.1 °F 5.0 °F 73% 30.41 in 10.0 mi WSW 3.5 mph - N/A   Clear
9:34 AM 14.0 °F - 5.0 °F 67% 30.41 in 10.0 mi Calm Calm - N/A   Mostly Cloudy
9:54 AM 14.0 °F 8.2 °F 5.0 °F 67% 30.41 in 10.0 mi West 3.5 mph - N/A   Overcast
10:14 AM 14.0 °F - 5.0 °F 67% 30.41 in 10.0 mi Calm Calm - N/A   Overcast
10:34 AM 15.8 °F - 6.8 °F 68% 30.41 in 10.0 mi Calm Calm - N/A   Overcast
10:54 AM 15.8 °F 6.1 °F 6.8 °F 68% 30.41 in 10.0 mi WNW 6.9 mph - N/A   Overcast
11:14 AM 17.6 °F 9.3 °F 6.8 °F 63% 30.40 in 10.0 mi West 5.8 mph - N/A   Overcast
11:35 AM 19.4 °F 10.4 °F 8.6 °F 63% 30.40 in 10.0 mi West 6.9 mph - N/A   Scattered Clouds
11:54 AM 19.4 °F 7.9 °F 8.6 °F 63% 30.40 in 10.0 mi WNW 10.4 mph 16.1 mph N/A   Mostly Cloudy
12:14 PM 19.4 °F 14.3 °F 8.6 °F 63% 30.39 in 10.0 mi West 3.5 mph - N/A   Overcast
12:35 PM 19.4 °F 12.8 °F 8.6 °F 63% 30.39 in 10.0 mi West 4.6 mph - N/A   Overcast
12:54 PM 19.4 °F 12.8 °F 8.6 °F 63% 30.39 in 10.0 mi West 4.6 mph - N/A Snow Light Snow
1:14 PM 19.4 °F 14.3 °F 8.6 °F 63% 30.39 in 10.0 mi West 3.5 mph - N/A   Overcast
1:34 PM 19.4 °F 14.3 °F 10.4 °F 68% 30.38 in 10.0 mi West 3.5 mph - N/A Snow Light Snow
1:54 PM 21.2 °F 12.6 °F 8.6 °F 58% 30.38 in 10.0 mi WNW 6.9 mph - N/A   Overcast
2:14 PM 21.2 °F 13.6 °F 10.4 °F 63% 30.38 in 10.0 mi WSW 5.8 mph - N/A Snow Light Snow
2:34 PM 21.2 °F 14.9 °F 10.4 °F 63% 30.38 in 10.0 mi West 4.6 mph - N/A   Overcast
2:54 PM 19.4 °F 10.4 °F 10.4 °F 68% 30.38 in 10.0 mi West 6.9 mph - N/A Snow Light Snow
3:14 PM 21.2 °F 12.6 °F 10.4 °F 63% 30.38 in 10.0 mi WNW 6.9 mph - N/A Snow Light Snow
3:34 PM 21.2 °F 16.4 °F 10.4 °F 63% 30.38 in 10.0 mi WNW 3.5 mph - N/A   Overcast
3:54 PM 21.2 °F 13.6 °F 10.4 °F 63% 30.39 in 10.0 mi NW 5.8 mph - N/A   Overcast
4:14 PM 19.4 °F 10.4 °F 10.4 °F 68% 30.39 in 10.0 mi NW 6.9 mph - N/A   Overcast
4:34 PM 19.4 °F 10.4 °F 10.4 °F 68% 30.39 in 10.0 mi WNW 6.9 mph - N/A   Overcast
4:54 PM 19.4 °F 11.5 °F 10.4 °F 68% 30.39 in 10.0 mi NNW 5.8 mph - N/A   Overcast
5:14 PM 19.4 °F 11.5 °F 10.4 °F 68% 30.39 in 10.0 mi NNW 5.8 mph - N/A Snow Light Snow
5:34 PM 17.6 °F 8.2 °F 8.6 °F 68% 30.39 in 10.0 mi NW 6.9 mph - N/A   Scattered Clouds
5:54 PM 14.0 °F 6.5 °F 8.6 °F 79% 30.40 in 10.0 mi NW 4.6 mph - N/A   Clear
6:14 PM 14.0 °F 5.1 °F 8.6 °F 79% 30.40 in 10.0 mi NW 5.8 mph - N/A   Clear
6:34 PM 14.0 °F - 8.6 °F 79% 30.40 in 10.0 mi Calm Calm - N/A   Clear
6:54 PM 14.0 °F - 8.6 °F 79% 30.39 in 10.0 mi Calm Calm - N/A   Clear
7:14 PM 14.0 °F - 8.6 °F 79% 30.39 in 10.0 mi Calm Calm - N/A   Clear
7:34 PM 14.0 °F - 8.6 °F 79% 30.39 in 10.0 mi Calm Calm - N/A   Clear
7:55 PM 12.2 °F - 8.6 °F 85% 30.39 in 10.0 mi Calm Calm - N/A   Clear
8:14 PM 14.0 °F - 10.4 °F 86% 30.38 in 10.0 mi Calm Calm - N/A   Clear
8:34 PM 10.4 °F - 8.6 °F 92% 30.39 in 10.0 mi Calm Calm - N/A   Clear
8:54 PM 10.4 °F - 8.6 °F 92% 30.39 in 10.0 mi Calm Calm - N/A   Clear
9:15 PM 10.4 °F - 5.0 °F 79% 30.39 in 10.0 mi Calm Calm - N/A   Clear
9:34 PM 10.4 °F - 6.8 °F 85% 30.38 in 10.0 mi Calm Calm - N/A   Clear
9:54 PM 10.4 °F - 6.8 °F 85% 30.38 in 10.0 mi Calm Calm - N/A   Clear
10:15 PM 8.6 °F - 5.0 °F 85% 30.38 in 10.0 mi Calm Calm - N/A   Clear
10:34 PM 10.4 °F - 6.8 °F 85% 30.37 in 10.0 mi Calm Calm - N/A   Clear
10:54 PM 8.6 °F - 5.0 °F 85% 30.37 in 10.0 mi Calm Calm - N/A   Clear
11:14 PM 8.6 °F - 5.0 °F 85% 30.37 in 10.0 mi Calm Calm - N/A   Clear
11:34 PM 8.6 °F - 5.0 °F 85% 30.37 in 10.0 mi Calm Calm - N/A   Clear
11:54 PM 8.6 °F - 5.0 °F 85% 30.37 in 10.0 mi Calm Calm - N/A   Clear